User: anonymous   Login
Location: Kervinic
(48.4279°N, 4.7373°W)
Time: 00:20:53
(UTC+00:00)
Language:

ATLAS CENTAUR R/B - Orbit

View from above orbital plane
View from above orbital plane
View from above satellite
View from above satellite

Ground track
Ground track

The orbit data is extracted from the following two-line orbital elements,

1 38770U 12048N   20187.89088617 0.00000300  00000-0  20478-4 0    06
2 38770  64.6536 103.2098 0143390 136.3442 223.6558 14.97865276    09
Epoch (UTC): 05 July 2020 21:22:52
Eccentricity: 0.0143390
inclination: 64.6536°
perigee height: 474 km
apogee height: 673 km
right ascension of ascending node: 103.2098°
argument of perigee: 136.3442°
revolutions per day: 14.97865276
mean anomaly at epoch: 223.6558°
orbit number at epoch: 0

The dashed part of the orbit path shows where the satellite is in the earth's shadow,  

DLR